Weather History for West Palm Beach, FL

Change the Weather History Date:

Saturday, November 2, 2013

  Actual Average Record
Temperature  
Mean Temperature 80 °F 75 °F  
Max Temperature 89 °F 82 °F 92 °F (1919)
Min Temperature 70 °F 68 °F 51 °F (1993)
Degree Days  
Heating Degree Days 0 0  
Month to date heating degree days 0 0  
Since 1 July heating degree days 0 1  
Cooling Degree Days 15 10  
Month to date cooling degree days 33 20  
Year to date cooling degree days 3881 3641  
Growing Degree Days 30 (Base 50)    
Moisture  
Dew Point 67 °F    
Average Humidity 68    
Maximum Humidity 93    
Minimum Humidity 43    
Precipitation  
Precipitation 0.00 in 0.18 in 2.52 in (1925)
Month to date precipitation 0.00 0.35  
Year to date precipitation 57.86 54.55  
Snow  
Snow 0.00 in - - ()
Month to date snowfall 0.0  
Since 1 July snowfall 0.0  
Since 1 September snowfall 0.0  
Snow Depth 0.00 in    
Sea Level Pressure  
Sea Level Pressure 29.88 in    
Wind  
Wind Speed 7 mph (West)    
Max Wind Speed 18 mph    
Max Gust Speed 23 mph    
Visibility 10 miles    
Events      
T = Trace of Precipitation, MM = Missing Value Source: NWS Daily Summary

Daily Weather History Graph

Daily Weather History Graph

Search for Another Location

Airport:

Trip Planner

Search our weather history database for the weather conditions in past years. The results will help you decide how hot, cold, wet, or windy it might be!

Date:

Astronomy

Nov. 02, 2013 Rise Set
Actual Time 7:30 AM EDT 6:36 PM EDT
Civil Twilight 7:06 AM EDT 7:00 PM EDT
Nautical Twilight 6:39 AM EDT 7:28 PM EDT
Astronomical Twilight 6:12 AM EDT 7:55 PM EDT
Moon 6:30 AM EDT (11/2) 6:05 PM EDT (11/2)
Length of Visible Light 11h 53m
Length of Day
11h 06m
Waning Crescent, 1% of the Moon is Illuminated
Nov 2
Waning Crescent
Nov 3
New
Nov 10
First Quarter
Nov 17
Full
Nov 25
Last Quarter

Hourly Weather History & Observations

Time (EDT) Temp. Heat Index Dew Point Humidity Pressure Visibility Wind Dir Wind Speed Gust Speed Precip Events Conditions
12:53 AM 78.1 °F - 70.0 °F 76% 29.93 in 10.0 mi SSW 6.9 mph - N/A   Partly Cloudy
1:53 AM 75.9 °F - 70.0 °F 82% 29.92 in 10.0 mi WSW 5.8 mph - N/A   Partly Cloudy
2:53 AM 75.0 °F - 70.0 °F 84% 29.90 in 10.0 mi Calm Calm - N/A   Scattered Clouds
3:53 AM 73.9 °F - 70.0 °F 87% 29.89 in 10.0 mi Calm Calm - N/A   Partly Cloudy
4:53 AM 73.0 °F - 70.0 °F 90% 29.88 in 10.0 mi Calm Calm - N/A   Scattered Clouds
5:53 AM 72.0 °F - 69.1 °F 91% 29.87 in 10.0 mi Calm Calm - N/A   Scattered Clouds
6:53 AM 73.0 °F - 69.1 °F 87% 29.88 in 10.0 mi SSW 3.5 mph - N/A   Scattered Clouds
7:53 AM 73.0 °F - 69.1 °F 87% 29.88 in 10.0 mi SW 3.5 mph - N/A   Scattered Clouds
8:53 AM 77.0 °F - 71.1 °F 82% 29.91 in 10.0 mi SW 5.8 mph - N/A   Scattered Clouds
9:53 AM 82.0 °F 85.9 °F 70.0 °F 67% 29.91 in 10.0 mi SW 8.1 mph - N/A   Scattered Clouds
10:53 AM 84.0 °F 86.5 °F 66.9 °F 56% 29.91 in 10.0 mi SW 11.5 mph - N/A   Scattered Clouds
11:53 AM 86.0 °F 88.2 °F 66.0 °F 51% 29.91 in 10.0 mi SW 15.0 mph 23.0 mph N/A   Scattered Clouds
12:53 PM 87.1 °F 88.9 °F 64.9 °F 48% 29.88 in 10.0 mi WSW 11.5 mph 18.4 mph N/A   Scattered Clouds
1:53 PM 88.0 °F 88.7 °F 63.0 °F 43% 29.85 in 10.0 mi West 8.1 mph 16.1 mph N/A   Scattered Clouds
2:53 PM 88.0 °F 90.3 °F 66.0 °F 48% 29.83 in 10.0 mi SW 8.1 mph - N/A   Scattered Clouds
3:53 PM 89.1 °F 90.3 °F 64.0 °F 43% 29.81 in 10.0 mi SW 10.4 mph - N/A   Mostly Cloudy
4:53 PM 88.0 °F 88.7 °F 63.0 °F 43% 29.81 in 10.0 mi WNW 8.1 mph - N/A   Mostly Cloudy
5:53 PM 84.0 °F 86.5 °F 66.9 °F 56% 29.82 in 10.0 mi NW 13.8 mph - N/A   Mostly Cloudy
6:53 PM 80.1 °F 82.9 °F 69.1 °F 69% 29.85 in 10.0 mi NNW 11.5 mph - N/A   Mostly Cloudy
7:53 PM 79.0 °F - 69.1 °F 72% 29.88 in 10.0 mi NW 4.6 mph - N/A   Mostly Cloudy
8:53 PM 78.1 °F - 69.1 °F 74% 29.91 in 10.0 mi NW 5.8 mph - N/A   Mostly Cloudy
9:41 PM 78.8 °F - 68.0 °F 69% 29.91 in 10.0 mi NNW 10.4 mph - N/A   Mostly Cloudy
9:53 PM 78.1 °F - 68.0 °F 71% 29.91 in 10.0 mi NNW 12.7 mph - N/A   Mostly Cloudy
10:37 PM 75.2 °F - 60.8 °F 61% 29.93 in 10.0 mi NNW 15.0 mph - N/A   Mostly Cloudy
10:53 PM 75.0 °F - 60.1 °F 60% 29.92 in 10.0 mi North 10.4 mph - N/A   Mostly Cloudy
11:53 PM 72.0 °F - 60.1 °F 66% 29.92 in 10.0 mi North 9.2 mph - N/A   Scattered Clouds